Regional Weather Roundup
Issued by NWS Midland/Odessa, TX

Home | Current Version | Previous Version | Text Only | Print | Product List | Glossary On
Versions: 1 2 3 4 5 6 7 8 9 10 11 12 13 14 15 16 17 18 19 20 21 22 23 24 25 26 27 28 29 30 31 32 33 34 35 36 37 38 39 40 41 42 43 44 45 46 47 48 49 50
000
ASUS44 KMAF 220001
RWRMAF
MIDLAND AREA WEATHER ROUNDUP
NATIONAL WEATHER SERVICE MIDLAND TX
700 PM CDT THU SEP 21 2017

...IN SOUTHWEST TEXAS AND SOUTHEAST NEW MEXICO...

CITY           SKY/WX    TMP DP  RH WIND       PRES   REMARKS
ALPINE         MOSUNNY   83  53  34 NE3       30.02F
ANDREWS        FAIR      91  57  32 S8G21     29.86S
ARTESIA        SUNNY     93  45  18 SW16G22   29.83S
BIG SPRING     CLOUDY   N/A N/A N/A S15       29.86R
CARLSBAD       MOSUNNY   94  52  24 S17       29.81S
DRYDEN           N/A     89  68  49 SE17      29.84R
FORT STOCKTON  CLEAR     91  59  33 SE14G23   29.85S
GUAD PASS      SUNNY     86  45  23 SW18      30.01F
HOBBS          PTCLDY    91  48  22 S12G17    29.87S
MARFA          MOSUNNY   86  50  28 SE9       30.00F
MIDLAND AIRPK  CLEAR     91  58  32 SE12      29.85F
MIDLAND INTL   PTCLDY    93  58  30 S17       29.85S
ODESSA         CLEAR     92  57  30 S16       29.86S
PECOS          MOSUNNY   96  52  22 S14       29.79F
PRESIDIO       FAIR      95  51  22 SE5       29.84S
SEMINOLE       CLEAR     93  46  19 S10G16    29.87S
SNYDER         CLEAR     93  58  31 SE12      29.86R
WINK           PTCLDY    95  50  21 S9        29.80S
$$
...OTHER STATIONS IN TEXAS...

CITY           SKY/WX    TMP DP  RH WIND       PRES   REMARKS
ABILENE        CLEAR     91  63  39 S18       29.85R
AMARILLO       PTCLDY    90  49  24 S15G28    29.85S
AUSTIN         PTCLDY    86  70  58 SE16G22   29.88R
BROWNSVILLE    CLOUDY    87  77  72 SE18      29.85S
CORPUS CHRISTI CLOUDY    85  77  77 SE18      29.86S
DALLAS FTW     PTCLDY    93  66  40 S13       29.84S
DEL RIO        CLOUDY    93  70  46 SE13      29.79S
EL PASO        MOSUNNY   91  43  18 S8        29.88S
HOUSTON INT    CLOUDY    78  72  81 CALM      29.92F
LUBBOCK        PTCLDY    92  51  24 S18       29.85S
SAN ANGELO     CLEAR     94  59  31 SE16G22   29.83S
SAN ANTONIO    MOCLDY    85  67  54 S24G38    29.88R
WACO           CLEAR     89  70  53 SE21      29.86R
WICHITA FALLS  NOT AVBL
$$
...OTHER LOCATIONS IN NEW MEXICO...

CITY           SKY/WX    TMP DP  RH WIND       PRES   REMARKS
ALAMOGORDO     MOSUNNY   90  45  20 S13       29.89F
ALBUQUERQUE    MOSUNNY   85  36  17 S20       29.88F
CANNON AFB     NOT AVBL
CLOVIS         CLEAR     87  44  22 SW18      29.89S
HOLLOMAN AFB   SUNNY     89  43  19 S13       29.89S
ROSWELL        SUNNY     94  38  14 SW20      29.83R
RUIDOSO        MOSUNNY   75  39  27 SW24G30   30.10S
SANTA FE       SUNNY     80  29  15 S8        29.96F
TRUTH OR CONSE MOSUNNY   87  41  19 S14G25    29.89S
TUCUMCARI      CLEAR     90  45  21 S14       29.80S
$$




USA.gov is the U.S. government's official web portal to all federal, state and local government web resources and services.